Regional Weather Roundup
Issued by NWS

Home | Current Version | Previous Version | Graphics & Text | Print | Product List | Glossary On
Versions: 1 2 3 4 5 6 7 8 9 10 11 12 13 14 15 16 17 18 19 20 21 22 23 24 25 26 27 28 29 30 31 32 33 34 35 36 37 38 39 40 41 42 43 44 45 46 47 48 49 50
000
ASUS43 KBIS 222010
RWRND

NORTH DAKOTA REGIONAL WEATHER ROUNDUP
NATIONAL WEATHER SERVICE BISMARCK ND
300 PM CDT FRI MAY 22 2015

NOTE: "FAIR" INDICATES FEW OR NO CLOUDS BELOW 12,000 FEET WITH NO
SIGNIFICANT WEATHER AND/OR OBSTRUCTIONS TO VISIBILITY.


NDZ001>003-009>011-017-222100-
NORTHWEST NORTH DAKOTA

CITY           SKY/WX    TMP DP  RH WIND       PRES   REMARKS
WILLISTON      SUNNY     75  32  20 S17G25    30.07F
MINOT          SUNNY     76  31  19 S14G24    30.10F
MINOT AFB      SUNNY     78  33  19 S13G22    30.09S
$$

NDZ018>021-031>035-040>046-222100-
SOUTHWEST NORTH DAKOTA

CITY           SKY/WX    TMP DP  RH WIND       PRES   REMARKS
BISMARCK       MOSUNNY   75  37  25 SE14      30.13S
DICKINSON      MOSUNNY   72  33  24 SE23G38   30.06F
GARRISON         N/A     75  32  20 S12       30.11F
HETTINGER ARPT PTSUNNY   69  34  27 SE22G30   30.09F
$$

NDZ004>008-012>016-024-026-027-054-222100-
NORTHEAST NORTH DAKOTA

CITY           SKY/WX    TMP DP  RH WIND       PRES   REMARKS
GRAND FORKS    SUNNY     75  36  24 S7        30.15S
GRND FRKS AFB  SUNNY     77  38  25 SW7G16    30.15F
DEVILS LAKE    SUNNY     73  36  25 SE14G20   30.14F
$$

NDZ022-023-025-028>030-036>039-047>053-222100-
SOUTHEAST NORTH DAKOTA

CITY           SKY/WX    TMP DP  RH WIND       PRES   REMARKS
FARGO          SUNNY     74  42  31 S9        30.17F
JAMESTOWN      SUNNY     73  37  27 S12       30.15F
$$



USA.gov is the U.S. government's official web portal to all federal, state and local government web resources and services.